Zacatecas Airport, Mexico

6:03 AM CST on December 13, 2017 (GMT -0600)
Gen Leobardo C Ruiz International

Weather History for MMZC - May, 2013

Change the Weather History Date:

Friday, May 24, 2013

  Actual Average Record
Temperature  
Mean Temperature 70 °F -  
Max Temperature 84 °F 80 °F 91 °F (2011)
Min Temperature 57 °F 52 °F 46 °F (2008)
Cooling Degree Days 6    
Growing Degree Days 20 (Base 50)    
Moisture  
Dew Point 37 °F    
Average Humidity 32    
Maximum Humidity 48    
Minimum Humidity 16    
Precipitation  
Precipitation 0.00 in - - ()
Sea Level Pressure  
Sea Level Pressure 30.26 in    
Wind  
Wind Speed 12 mph ()    
Max Wind Speed 23 mph    
Max Gust Speed 34 mph    
Visibility 9.6 miles    
Events      
Averages and records for this station are not official NWS values.
T = Trace of Precipitation, MM = Missing Value Source: Averaged Metar Reports

Daily Weather History Graph

Daily Weather History Graph

Search for Another Location

Airport or City:

Trip Planner

Search our weather history database for the weather conditions in past years. The results will help you decide how hot, cold, wet, or windy it might be!

Date:

Astronomy

May. 24, 2013 Rise Set
Actual Time 7:06 AM CDT 8:28 PM CDT
Civil Twilight 6:41 AM CDT 8:53 PM CDT
Nautical Twilight 6:12 AM CDT 9:22 PM CDT
Astronomical Twilight 5:42 AM CDT 9:53 PM CDT
Moon 8:16 PM CDT (5/24) 6:35 AM CDT (5/24)
Length of Visible Light 14h 11m
Length of Day
13h 22m
Full, 100% of the Moon is Illuminated
May 24
Full
May 24
Full
May 31
Last Quarter
Jun 8
New
Jun 16
First Quarter

Hourly Weather History & Observations

Time (CDT) Temp. Dew Point Humidity Pressure Visibility Wind Dir Wind Speed Gust Speed Precip Events Conditions
12:56 AM 66.2 °F 39.2 °F 37% 30.26 in 10.0 mi SE 18.4 mph - N/A   Scattered Clouds
1:42 AM 66.2 °F 37.4 °F 35% 30.28 in 10.0 mi SE 16.1 mph - N/A   Mostly Cloudy
2:41 AM 64.4 °F 37.4 °F 37% 30.28 in 10.0 mi SSE 10.4 mph - N/A   Scattered Clouds
3:41 AM 60.8 °F 37.4 °F 42% 30.28 in 10.0 mi SW 5.8 mph - N/A   Scattered Clouds
4:47 AM 57.2 °F 37.4 °F 48% 30.25 in 10.0 mi South 12.7 mph - N/A   Partly Cloudy
5:45 AM 57.2 °F 37.4 °F 48% 30.25 in 10.0 mi SSW 10.4 mph - N/A   Scattered Clouds
6:54 AM 57.2 °F 37.4 °F 48% 30.26 in 8.0 mi SSW 8.1 mph - N/A   Mostly Cloudy
7:44 AM 59.0 °F 37.4 °F 45% 30.28 in 10.0 mi South 11.5 mph - N/A   Scattered Clouds
8:40 AM 64.4 °F 39.2 °F 40% 30.28 in 10.0 mi South 9.2 mph - N/A   Clear
9:44 AM 71.6 °F 39.2 °F 31% 30.30 in 10.0 mi South 12.7 mph - N/A   Clear
10:40 AM 73.4 °F 41.0 °F 31% 30.30 in 10.0 mi SSW 13.8 mph - N/A   Clear
11:40 AM 77.0 °F 35.6 °F 22% 30.30 in 10.0 mi WNW 11.5 mph - N/A   Clear
12:44 PM 80.6 °F 35.6 °F 20% 30.30 in 10.0 mi WNW 8.1 mph - N/A   Clear
1:40 PM 80.6 °F 33.8 °F 18% 30.28 in 10.0 mi West 6.9 mph - N/A   Scattered Clouds
2:53 PM 82.4 °F 33.8 °F 17% 30.24 in 10.0 mi NW 11.5 mph - N/A   Mostly Cloudy
3:40 PM 84.2 °F 33.8 °F 16% 30.22 in 10.0 mi NNW 3.5 mph - N/A   Mostly Cloudy
5:43 PM 82.4 °F 32.0 °F 16% 30.16 in 8.0 mi South 11.5 mph - N/A   Mostly Cloudy
6:52 PM 80.6 °F 37.4 °F 21% 30.16 in 8.0 mi South 15.0 mph - N/A   Mostly Cloudy
7:51 PM 77.0 °F 37.4 °F 24% 30.16 in 8.0 mi SSE 15.0 mph - N/A   Scattered Clouds
8:41 PM 71.6 °F 39.2 °F 31% 30.19 in 8.0 mi SE 23.0 mph 34.5 mph N/A   Scattered Clouds
9:49 PM 66.2 °F 41.0 °F 40% 30.25 in 10.0 mi South 23.0 mph - N/A   Mostly Cloudy
10:47 PM 66.2 °F 42.8 °F 43% 30.28 in 10.0 mi South 23.0 mph - N/A   Mostly Cloudy
11:45 PM 66.2 °F 39.2 °F 37% 30.31 in 10.0 mi SSE 20.7 mph - N/A   Overcast